Voltar ao catálogo

STARLINK-32594

AtivoComunicaçõesVLEO
NORAD 62302·PAYLOAD·🇺🇸 United States

Lançado Dec 13, 2024 de Vandenberg Space Force Base

Loading…

Próximas Passagens (próximas 24 horas)

TLE

AtualizadoSource: CelesTrak SupGP

Época: Sep 14, 2026, 22:30 UTC

1 62302C 24239B   26257.93798611  .00007043  00000+0  20790-3 0  2570
2 62302  53.1587  29.3973 0001608  72.7246 295.5741 15.34413247    18

Acompanhe STARLINK-32594 em tempo real com AllMySat

Download on the App Store